Regional Weather Roundup
Issued by NWS

Home | Current Version | Previous Version | Graphics & Text | Print | Product List | Glossary On
Versions: 1 2 3 4 5 6 7 8 9 10 11 12 13 14 15 16 17 18 19 20 21 22 23 24 25 26 27 28 29 30 31 32 33 34 35 36 37 38 39 40 41 42 43 44 45 46 47 48 49 50
000
ASUS45 KABQ 300010
RWRNM
WEATHER ROUNDUP FOR NEW MEXICO
NATIONAL WEATHER SERVICE ALBUQUERQUE NM
600 PM MDT TUE JUL 29 2014

NOTE: "FAIR" MEANS FEW OR NO CLOUDS BELOW 12,000 FEET AGL WITH NO
       SIGNIFICANT WEATHER OR OBSTRUCTIONS TO VISION.

      THIS PRODUCT IS RELEASED AS TWO VERSIONS.  ONE VERSION NEAR
      THE TOP OF THE HOUR CONTAINING PRELIMINARY DATA FROM ALBUQUERQUE
      AND OTHER STATIONS.  A FINAL VERSION WITH ADDITIONAL DATA IS
      ISSUED ABOUT 10 MINUTES AFTER THE HOUR.

NMZ501-503-504-510>518-300100-
NORTHWEST PLATEAU/NORTHCENTRAL MOUNTAINS

CITY           SKY/WX    TMP DP  RH WIND       PRES   REMARKS
FARMINGTON     SUNNY     87  48  25 W15G25    30.13F
6HR MIN TEMP:  76; 6HR MAX TEMP:  88;

LOS ALAMOS     MOSUNNY   68  53  58 E5        30.31S
SANTA FE       PTSUNNY   73  54  51 E3        30.23F
6HR MIN TEMP:  67; 6HR MAX TEMP:  76; 6HR PCP:  0.01;

TAOS           CLOUDY    66  55  68 NE14      30.30S
ANGEL FIRE     CLOUDY    64  54  69 NE16G31   30.39S

$$
NMZ402-403-502-505>509-300100-
WESTCENTRAL MOUNTAINS/SOUTHWEST MOUNTAINS

CITY           SKY/WX    TMP DP  RH WIND       PRES   REMARKS
GALLUP         CLOUDY    82  47  29 W10       30.23S
6HR MIN TEMP:  75; 6HR MAX TEMP:  85; 6HR PCP: TRACE;

SILVER CITY    TSTM      73  61  64 N21G30    30.28R

$$
NMZ407-409-411-412-300100-
SOUTHERN DESERTS

CITY           SKY/WX    TMP DP  RH WIND       PRES   REMARKS
LORDSBURG      FAIR      90  50  25 NW8       30.10S
DEMING         PTSUNNY   90  55  30 NE13      30.11S
6HR MIN TEMP:  84; 6HR MAX TEMP:  91;

LAS CRUCES     CLOUDY    77  61  57 NE21G30   30.19R
HOLLOMAN AFB   CLOUDY    86  59  39 W2        30.10F
ALAMOGORDO     PTSUNNY   84  57  39 SW7       30.13S
T OR C         CLOUDY    74  62  66 VRB3      30.17F
6HR MIN TEMP:  63; 6HR MAX TEMP:  88; 6HR PCP:  0.82;


$$
NMZ519>523-300100-
CENTRAL VALLEYS/CENTRAL HIGHLANDS

CITY           SKY/WX    TMP DP  RH WIND       PRES   REMARKS
ALBUQUERQUE    PTSUNNY   75  62  64 E10       30.17F
6HR MIN TEMP:  65; 6HR MAX TEMP:  86; 6HR PCP:  0.77;

DOUBLE EAGLE   PTSUNNY   77  57  50 E8        30.21F
MORIARTY ARPT  FAIR      63  57  79 S9G18     30.27S
6HR MIN TEMP:  62; 6HR MAX TEMP:  78; 6HR PCP:  0.39;

CLINES CORNERS CLOUDY    67  60  78 W10       30.29F
6HR MIN TEMP:  64; 6HR MAX TEMP:  74; 6HR PCP: TRACE;

BELEN          TSTM      83  52  34 E8        30.15S
6HR MIN TEMP:  78; 6HR MAX TEMP:  87;

SOCORRO        FAIR      82  57  42 S14       30.14F
6HR MIN TEMP:  71; 6HR MAX TEMP:  85; 6HR PCP:  0.07;


$$
NMZ524>526-539-540-300100-
SOUTHCENTRAL MOUNTAINS

CITY           SKY/WX    TMP DP  RH WIND       PRES   REMARKS
RUIDOSO        CLOUDY    72  55  56 SW9       30.33S

$$
NMZ527>531-300100-
NORTHEAST HIGHLANDS/NORTHEAST PLAINS

CITY           SKY/WX    TMP DP  RH WIND       PRES   REMARKS
LAS VEGAS      CLOUDY    66  62  87 SW7       30.28F
6HR MIN TEMP:  62; 6HR MAX TEMP:  74; 6HR PCP:  0.51;

RATON          LGT RAIN  67  62  84 S3        30.22F
6HR MIN TEMP:  65; 6HR MAX TEMP:  77; 6HR PCP:  0.05;

CLAYTON        PTSUNNY   78  58  49 S13       30.14F
6HR MIN TEMP:  76; 6HR MAX TEMP:  81;


$$
NMZ532>537-300100-
EASTCENTRAL PLAINS

CITY           SKY/WX    TMP DP  RH WIND       PRES   REMARKS
TUCUMCARI      CLOUDY    81  61  50 SW13      30.10F
6HR MIN TEMP:  75; 6HR MAX TEMP:  83;

CANNON AFB     SUNNY     77  65  64 S13       30.15F
6HR MIN TEMP:  65; 6HR MAX TEMP:  80; 6HR PCP: TRACE;

CLOVIS AIRPORT MOSUNNY   75  61  60 S15       30.17

$$
NMZ028-029-538-300100-
SOUTHEAST PLAINS

CITY           SKY/WX    TMP DP  RH WIND       PRES   REMARKS
ROSWELL        PTSUNNY   79  67  66 NE7       30.09F
6HR MIN TEMP:  69; 6HR MAX TEMP:  81; 6HR PCP:  0.01;

ARTESIA        SUNNY     91  57  31 S9        30.07F
CARLSBAD       PTSUNNY   94  51  23 SE12      30.04F
6HR MIN TEMP:  86; 6HR MAX TEMP:  95;

HOBBS          SUNNY     86  59  39 NE10      30.12S


$$


USA.gov is the U.S. government's official web portal to all federal, state and local government web resources and services.